User: anonymous   Login
Location: Azul
(36.7830°S, 59.8500°W)
Time: 22:16:40
(UTC-03:00)
Language:

First-Move - Orbit

View from above orbital plane
View from above orbital plane
View from above satellite
View from above satellite

Ground track
Ground track

The orbit data is extracted from the following two-line orbital elements,

1 39439U 13066Z   22220.38003275  .00002198  00000-0  25866-3 0  9990
2 39439  97.6406 192.0548 0061071 228.3133 131.2847 14.84504249469756
Epoch (UTC): 08 August 2022 09:07:14
Eccentricity: 0.0061071
inclination: 97.6406°
perigee height: 572 km
apogee height: 658 km
right ascension of ascending node: 192.0548°
argument of perigee: 228.3133°
revolutions per day: 14.84504249
mean anomaly at epoch: 131.2847°
orbit number at epoch: 46975

The dashed part of the orbit path shows where the satellite is in the earth's shadow,  

DLR